Home   Weather   Tönisvorst   Past weeks

Flag for Germany Past Weather in Tönisvorst, North Rhine-Westphalia, Germany — Yesterday and Last 2 Weeks

Now
70 °F

Passing clouds.


Feels Like: 70 °F
Forecast: 54 / 64 °F
Wind: 10 mph from Southwest

Location: Monchengladbach Airport

Current Time: Sep 29, 2016 at 5:20:48 PM

Latest Report: Sep 29, 2016 at 4:50 PM


Visibility: N/A

Pressure: 29.95 "Hg

Humidity: 57%

Dew Point: 54 °F

Location of TönisvorstLocation

Past Weather in Tönisvorst — Graph

°F

Tönisvorst Temperature Yesterday

Maximum temperature yesterday: 73 °F (at 4:20 PM)
Minimum temperature yesterday: 57 °F (at 7:50 AM)
Average temperature yesterday: 67 °F

High & Low Weather Summary for the Past Weeks

 TemperatureHumidityPressure
High90 °F (Sep 14, 3:50 PM)100% (Sep 17, 7:50 AM)30.33 "Hg (Sep 17, 7:50 AM)
Low45 °F (Sep 27, 7:50 AM)29% (Sep 14, 4:20 PM)29.77 "Hg (Sep 15, 4:20 PM)
Average66 °F64%30.09 "Hg
* Reported Sep 14 3:20 PM — Sep 29 3:50 PM, Tönisvorst, Weather by CustomWeather, © 2016

Note: Actual official high and low records may vary slightly from our data, if they occured in-between our weather recording intervals... More about our weather records

Advertising

Tönisvorst Weather History for the Previous 24 Hours

Scroll right to see more
 ConditionsComfort  
Time TempWeatherWind HumidityBarometerVisibility
3:50 PM
Thu, Sep 29
72 °FPassing clouds.16 mph53%29.95 "HgN/A
3:20 PM70 °FPassing clouds.18 mph57%29.98 "HgN/A
2:50 PM70 °FPassing clouds.10 mph57%29.98 "HgN/A
2:20 PM72 °FPassing clouds.12 mph53%29.98 "HgN/A
1:50 PM70 °FPassing clouds.17 mph60%30.01 "HgN/A
1:20 PM70 °FPassing clouds.17 mph60%30.01 "HgN/A
12:50 PM70 °FPassing clouds.17 mph64%30.01 "HgN/A
12:20 PM68 °FPassing clouds.10 mph69%30.04 "HgN/A
11:50 AM66 °FPassing clouds.13 mph73%30.04 "HgN/A
11:20 AM66 °FPassing clouds.13 mph73%30.04 "HgN/A
10:50 AM66 °FPassing clouds.8 mph73%30.07 "HgN/A
10:20 AM64 °FPartly sunny.9 mph78%30.07 "HgN/A
9:50 AM66 °FSunny.8 mph73%30.07 "Hg10 mi
9:20 AM64 °FSunny.6 mph78%30.07 "Hg10 mi
8:50 AM63 °FSunny.8 mph83%30.07 "Hg10 mi
8:20 AM61 °FSunny.6 mph83%30.07 "Hg10 mi
7:50 AM59 °FSunny.5 mph88%30.09 "Hg10 mi
7:50 PM
Wed, Sep 28
66 °FClear.2 mph60%30.24 "Hg10 mi
7:20 PM68 °FClear.3 mph53%30.24 "Hg10 mi
6:50 PM70 °FPassing clouds.7 mph50%30.24 "HgN/A
6:20 PM70 °FPassing clouds.8 mph53%30.24 "HgN/A
5:50 PM70 °FPassing clouds.8 mph53%30.24 "HgN/A
5:20 PM72 °FPassing clouds.9 mph53%30.24 "HgN/A
Weather by CustomWeather, © 2016

See weather overviewHow to use our weather pages